Presure
111 145 131 133 159 148 84 89 143 141 123 123 144 140 104 151 160 78 91 94 92 97 157 96 122 161 162 175 192 180 190 195 202
143 141 144 139 132 125 101 146 154 145 144 159 156 103 146 139 94 89 90 113 88 95 163 163 166 131 142 163 178 177 189 203 205
144 150 148 123 130 130 132 157 141 144 133 123 143 148 87 95 95 114 94 91 125 107 89 99 169 165 132 137 99 148 190 195 197
148 145 153 160 133 149 147 119 157 160 134 97 133 94 104 87 87 123 137 91 93 87 92 93 100 96 101 99 107 168 196 103 117
122 129 115 128 176 132 117 140 133 149 128 95 97 80 87 122 89 88 90 97 106 109 109 163 98 161 189 102 101 102 104 115 201
167 133 123 157 171 152 157 101 92 98 78 87 84 98 88 90 86 90 81 100 97 101 158 147 128 171 108 94 92 104 104 105 199
145 100 151 177 102 106 156 86 87 88 86 87 85 86 90 86 86 87 97 129 103 193 101 175 185 124 108 97 126 141 109 107 110
114 134 171 173 102 167 89 83 80 89 87 84 85 79 120 87 162 163 106 80 110 139 104 178 124 110 111 104 101 103 100 102 108
100 97 210 171 102 153 115 87 82 86 91 84 197 195 114 99 169 212 205 196 113 84 125 112 115 114 110 108 104 107 100 104 108
94 229 112 103 109 167 87 90 95 93 90 82 88 90 88 232 201 115 172 119 173 94 108 122 88 102 103 109 104 103 101 104 111
84 191 103 88 210 98 93 92 88 84 89 85 87 94 104 124 119 227 139 161 233 111 110 91 90 101 102 101 110 104 108 110 200
98 82 100 101 121 107 90 88 81 85 85 97 89 97 103 234 235 171 239 239 132 122 116 114 117 106 97 104 111 106 111 134 203
106 92 111 104 115 95 95 96 89 93 97 100 96 101 88 222 219 217 87 198 132 128 125 112 117 116 123 111 110 131 213 215 226
99 98 106 116 102 136 96 92 87 84 97 89 87 104 108 114 128 143 128 207 188 102 153 161 199 128 111 154 146 210 218 210 202
109 185 132 107 97 95 80 74 83 95 85 91 95 175 200 166 154 120 183 116 122 120 104 103 111 131 167 183 117 170 222 221 224
226 111 175 104 88 91 100 77 92 98 96 100 99 103 198 197 129 139 192 193 94 102 110 111 103 139 181 184 204 224 226 185 216
250 234 233 229 137 198 144 103 106 132 100 102 102 158 170 193 192 159 111 98 184 103 109 105 106 193 165 184 178 212 178 174 178
237 247 220 237 232 224 102 98 96 100 104 165 226 232 214 138 104 190 192 97 110 125 185 103 189 184 182 175 175 176 182 176 173
246 238 243 245 229 229 190 189 214 136 235 247 212 222 92 89 124 147 174 193 186 180 184 191 184 183 185 182 178 174 171 173 183
213 255 232 263 245 235 224 212 222 232 234 232 243 90 93 230 222 225 223 215 208 208 193 185 190 188 183 183 183 178 174 184 186
Wind_Speed
28 56 41 42 63 54 12 18 51 47 35 30 48 47 23 55 61 17 19 19 20 23 55 26 40 60 61 71 72 72 70 69 66
56 53 56 50 40 34 27 54 62 52 50 63 59 24 51 50 17 18 19 32 19 22 62 61 62 44 50 60 73 70 70 69 66
59 65 63 35 43 50 46 65 50 55 39 32 50 54 14 19 22 33 22 22 42 28 22 31 68 60 47 49 34 54 70 67 60
64 57 65 72 45 58 52 35 66 71 43 22 45 21 29 19 20 41 52 24 26 21 26 28 35 33 36 37 40 65 72 39 44
40 42 35 45 79 46 36 50 45 60 39 21 23 21 24 39 25 26 27 34 38 38 42 68 36 65 78 39 40 41 42 46 63
63 47 43 69 81 64 68 26 21 27 21 20 22 30 26 23 27 34 18 38 36 37 66 57 55 73 41 38 37 45 46 46 60
67 35 65 84 32 33 67 22 21 22 24 24 24 27 31 23 26 32 41 53 43 81 37 79 81 51 44 45 55 54 49 50 53
46 49 85 87 34 81 26 26 24 26 26 26 27 26 52 28 81 63 49 28 48 53 48 76 54 48 47 48 50 52 51 51 56
38 36 81 85 39 72 45 30 28 30 32 30 88 81 43 33 65 84 84 80 50 30 49 51 52 50 50 51 52 55 55 58 59
35 73 44 43 44 56 32 35 36 35 33 27 36 39 41 85 77 52 71 55 72 44 53 54 41 52 54 55 54 56 57 61 64
29 61 43 35 68 39 39 37 33 30 36 30 39 47 45 55 56 75 60 67 78 54 54 45 47 55 56 56 60 59 63 66 60
46 30 46 45 51 46 40 35 27 33 33 46 42 50 54 64 64 51 66 67 61 60 59 58 60 59 54 62 64 62 66 66 62
53 41 53 52 56 45 44 43 38 44 48 49 50 54 39 59 60 61 41 62 65 65 66 61 64 65 69 66 67 67 67 68 62
52 52 55 58 50 59 46 42 38 34 48 42 41 60 62 63 64 64 65 62 60 55 65 64 61 67 68 66 72 64 64 64 63
58 79 64 60 48 45 30 29 37 49 39 46 52 65 68 58 70 67 64 67 69 68 57 63 70 69 64 61 75 71 65 65 64
69 65 66 62 41 44 54 35 51 56 55 59 61 65 69 67 66 54 67 66 52 65 70 69 60 72 63 63 62 64 63 66 66
60 67 69 70 64 69 66 61 65 68 61 63 65 71 66 71 72 69 71 55 73 67 70 63 61 67 67 67 67 65 65 68 66
59 61 70 67 67 69 61 55 54 60 67 65 75 77 76 57 51 74 73 61 77 64 72 62 70 71 70 73 74 71 69 72 71
54 61 62 65 67 66 67 68 69 59 70 71 69 72 47 50 57 69 76 77 80 81 80 77 75 76 75 76 77 78 79 77 75
64 55 64 58 63 65 68 70 69 67 70 71 71 56 60 74 75 78 78 81 80 82 83 82 80 80 81 80 80 80 82 78 80
Wind_Direction
254 259 266 270 262 265 278 274 270 273 267 268 279 281 269 283 283 303 299 299 305 301 293 305 298 292 294 300 300 301 302 304 305
263 264 262 266 269 270 274 272 269 273 275 276 278 279 285 283 285 285 296 287 305 306 291 293 290 292 285 298 298 297 302 305 307
264 264 265 263 266 268 271 270 273 271 274 266 280 281 279 274 282 284 291 298 292 294 301 302 293 292 298 300 302 302 303 303 302
267 267 266 265 268 270 273 264 273 271 269 272 281 271 279 287 291 283 286 295 295 299 304 307 303 306 305 304 302 300 301 303 304
255 259 257 264 262 262 260 270 265 275 266 265 268 277 281 272 291 294 297 293 292 292 293 292 305 294 295 298 301 302 303 305 300
265 265 264 267 265 268 264 251 255 264 273 268 273 279 284 290 294 294 289 294 297 294 292 288 298 291 293 303 300 300 301 303 297
261 253 262 263 250 252 266 250 257 261 265 272 274 278 280 286 288 290 293 289 293 283 301 291 292 289 292 302 297 298 302 304 304
252 258 265 267 252 274 245 257 259 262 263 269 269 276 284 285 284 279 288 278 287 286 291 288 287 289 291 295 301 302 304 305 304
249 249 267 264 249 275 269 256 263 264 267 269 276 275 278 282 276 277 277 278 283 295 283 288 286 288 292 295 298 299 303 303 302
253 267 251 248 250 266 257 259 262 267 272 274 282 286 288 274 276 279 278 280 280 294 290 282 302 298 299 295 299 300 301 301 300
259 263 250 261 266 247 254 256 264 271 277 279 280 283 280 275 278 278 277 279 278 285 288 300 302 298 300 301 295 299 297 297 281
251 258 253 253 259 251 261 264 274 275 277 275 281 281 285 279 280 281 279 279 280 281 285 287 286 292 301 299 295 297 296 292 280
250 260 256 256 258 257 262 264 275 275 275 278 281 284 288 280 279 279 293 280 279 282 284 287 287 288 288 293 295 292 279 278 277
253 256 255 256 258 261 262 274 269 276 278 279 284 287 286 283 282 282 280 279 281 284 283 284 284 289 293 289 289 279 277 278 279
254 269 261 256 261 261 275 268 279 275 281 280 284 276 274 275 279 281 280 283 283 284 292 298 294 291 288 280 292 287 278 277 275
267 257 262 256 262 262 265 269 277 276 279 281 282 284 272 272 282 281 276 277 296 296 293 294 297 287 280 279 281 280 278 280 279
269 267 268 269 264 269 265 266 269 271 277 280 281 274 272 271 272 278 286 291 276 296 294 296 291 280 282 279 278 283 278 278 279
273 273 268 268 267 269 266 268 273 276 275 273 269 269 271 276 289 272 272 292 290 288 275 288 275 274 274 275 275 276 278 278 278
283 274 273 271 269 270 270 270 270 276 270 268 271 271 281 285 280 283 275 272 274 278 277 276 275 275 276 275 275 276 277 278 280
273 283 273 279 274 271 270 270 271 270 271 271 269 284 285 270 272 273 273 273 274 274 274 276 275 276 276 277 277 277 278 279 280